Weather History for Everett, WA

Change the Weather History Date:

Sunday, August 25, 2013

  Actual Average Record
Temperature  
Mean Temperature 61 °F -  
Max Temperature 68 °F 72 °F 84 °F (1985)
Min Temperature 54 °F 52 °F 42 °F (1973)
Degree Days  
Heating Degree Days 4    
Growing Degree Days 11 (Base 50)    
Moisture  
Dew Point 52 °F    
Average Humidity 70    
Maximum Humidity 86    
Minimum Humidity 54    
Precipitation  
Precipitation 0.00 in - - ()
Sea Level Pressure  
Sea Level Pressure 29.93 in    
Wind  
Wind Speed 3 mph (NNE)    
Max Wind Speed 7 mph    
Max Gust Speed -    
Visibility 10 miles    
Events      
Averages and records for this station are not official NWS values.
T = Trace of Precipitation, MM = Missing Value Source: NWS Daily Summary

Daily Weather History Graph

Daily Weather History Graph

Search for Another Location

Airport:

Trip Planner

Search our weather history database for the weather conditions in past years. The results will help you decide how hot, cold, wet, or windy it might be!

Date:

Astronomy

Aug. 25, 2013 Rise Set
Actual Time 6:18 AM PDT 8:02 PM PDT
Civil Twilight 5:45 AM PDT 8:35 PM PDT
Nautical Twilight 5:05 AM PDT 9:15 PM PDT
Astronomical Twilight 4:20 AM PDT 9:59 PM PDT
Moon 10:08 PM PDT (8/25) 11:53 AM PDT (8/25)
Length of Visible Light 14h 50m
Length of Day
13h 44m
Waning Gibbous, 75% of the Moon is Illuminated
Aug 25
Waning Gibbous
Aug 28
Last Quarter
Sep 5
New
Sep 12
First Quarter
Sep 19
Full

Hourly Weather History & Observations

Time (PDT) Temp. Dew Point Humidity Pressure Visibility Wind Dir Wind Speed Gust Speed Precip Events Conditions
12:53 AM 57.0 °F 51.1 °F 81% 29.94 in 10.0 mi North 4.6 mph - N/A   Clear
1:53 AM 57.0 °F 51.1 °F 81% 29.95 in 10.0 mi North 4.6 mph - N/A   Clear
2:53 AM 55.9 °F 51.1 °F 84% 29.95 in 10.0 mi North 4.6 mph - N/A   Clear
3:53 AM 55.9 °F 51.1 °F 84% 29.95 in 10.0 mi Calm Calm - N/A   Partly Cloudy
4:53 AM 55.0 °F 50.0 °F 83% 29.95 in 10.0 mi Calm Calm - N/A   Clear
5:53 AM 55.0 °F 50.0 °F 83% 29.95 in 10.0 mi NNE 3.5 mph - N/A   Clear
6:53 AM 54.0 °F 50.0 °F 86% 29.96 in 10.0 mi Calm Calm - N/A   Clear
7:53 AM 57.0 °F 52.0 °F 83% 29.96 in 10.0 mi NNE 3.5 mph - N/A   Mostly Cloudy
8:53 AM 60.1 °F 52.0 °F 75% 29.95 in 10.0 mi Variable 3.5 mph - N/A   Clear
9:53 AM 60.1 °F 52.0 °F 75% 29.95 in 10.0 mi Variable 4.6 mph - N/A   Clear
10:53 AM 62.1 °F 51.1 °F 67% 29.95 in 10.0 mi North 3.5 mph - N/A   Clear
11:53 AM 64.0 °F 51.1 °F 63% 29.93 in 10.0 mi NNW 4.6 mph - N/A   Clear
12:53 PM 66.9 °F 52.0 °F 59% 29.93 in 10.0 mi NNE 4.6 mph - N/A   Clear
1:53 PM 66.9 °F 52.0 °F 59% 29.91 in 10.0 mi Variable 4.6 mph - N/A   Clear
2:53 PM 66.9 °F 50.0 °F 54% 29.90 in 10.0 mi Calm Calm - N/A   Clear
3:53 PM 68.0 °F 51.1 °F 55% 29.90 in 10.0 mi West 3.5 mph - N/A   Overcast
4:53 PM 66.9 °F 51.1 °F 57% 29.91 in 10.0 mi Calm Calm - N/A   Overcast
5:53 PM 68.0 °F 51.1 °F 55% 29.90 in 10.0 mi Calm Calm - 0.00 in   Overcast
6:53 PM 66.0 °F 53.1 °F 63% 29.89 in 10.0 mi Calm Calm - N/A   Overcast
7:53 PM 66.0 °F 52.0 °F 60% 29.90 in 10.0 mi South 6.9 mph - N/A   Overcast
8:53 PM 64.9 °F 51.1 °F 61% 29.90 in 10.0 mi South 3.5 mph - N/A   Overcast
9:53 PM 64.9 °F 55.0 °F 70% 29.91 in 10.0 mi SSE 5.8 mph - N/A   Overcast
10:53 PM 64.9 °F 55.0 °F 70% 29.90 in 10.0 mi SSE 5.8 mph - N/A   Overcast
11:53 PM 63.0 °F 55.9 °F 78% 29.89 in 10.0 mi SSE 5.8 mph - N/A   Mostly Cloudy